Location: Wien
(48.2082°N, 16.3738°E)
Time: 12:00:23
(UTC+02:00)

Tiros 1 despin weight - Pass Details

Date: 13 September 2024
Orbit: 573 x 615 km, 48.2° (Epoch: 06 October)

Event Time Altitude Azimuth Distance (km) Brightness Sun altitude
Rises 07:08:28 0° 263° (W) 2,886 ? 5.7°
Reaches altitude 10° 07:10:46 10° 263° (W) 1,982 ? 6.1°
Maximum altitude 07:15:21 89° 186° (S) 624 ? 6.8°
Drops below altitude 10° 07:19:55 10° 86° (E) 1,979 ? 7.6°
Sets 07:22:13 0° 86° (E) 2,881 ? 8.0°
